Find Starlink 36964

NORAD ID: 68184 Int'l Des: 2026-050 Owner: SPXS Country: US Constellation: starlink operational
LEOCIRCULAR

Live Position

Loading 3D Globe...

About Starlink 36964

Description loading...

Upcoming Passes

Passes for default location (London). Set your location on the main map for personalized predictions.

Altitude History

Loading altitude history...

Two-Line Element Set

1 68184U 26050T 26120.72639171 .00014679 00000-0 38441-3 0 9997
2 68184 53.1609 26.2215 0000821 122.6917 237.4167 15.38959940 8630
Epoch: Apr 30, 2026 • Age: 15 hours

Current Status

Altitude 451.5 km
Velocity 7.64 km/s
Sub-Earth Point -9.55°S, 133.13°W
Launch Date Mar 14, 2026
Age 0.1 years
Type internet

Technical Details

Classification Payload
Mass 575.00 kg
Dry Mass 530.00 kg
Total Mass 575.00 kg
Length 0.30 m
Diameter 4.10 m
Span 29.00 m
Shape Box + pan
Manufacturer SPXS
Bus Type Starlink V2MO
Phase Status In Orbit
Owner/State SPXS/US

Most Searched